Weather in Cherikov

Belarus     53°34′10″N   31°22′50″E
temp.,
°C
wind,
m/s
gust,
m/s
humid.,
%
clouds,
%
prec.,
mm/h
press.,
hPa
HPBL,
m
4 march, thu
thu400:00−1wsw411850 0.0 1018338
03:00−1wsw513790 0.0 1015400
06:00−3sw513870 0.0 1011373
09:00−2wsw512938 0.0 1008470
12:00+1w489185 0.0 1006610
15:00+1wnw489293 0.1 1005670
18:000wnw4992100 0.1 1005718
21:000wnw41095100 0.1 1006521
5 march, fri
fri500:00−2n2390100 0.1 100794
03:00−4nw259499 0.1 1009144
06:00−6nnw249246 0.0 1010120
09:00−5nnw248537 0.0 1011194
12:00−2nnw347726 0.0 1012565
15:00−1nw236913 0.0 1013751
18:00−3wnw22795 0.0 101457
21:00−3wsw277921 0.0 1016236
6 march, sat
sat600:00−5nw498189 0.1 1017629
03:00−6nw4107957 0.1 1018553
06:00−7nw5108389 0.0 1019588
09:00−7nnw5108365 0.0 1020686
12:00−4nnw587487 0.1 10221099
15:00−3nw586694 0.1 10221414
18:00−4wnw387385 0.1 1022848
21:00−5wsw4117544 0.1 1022374
7 march, sun
sun700:00−4wsw5127041 0.0 1019612
03:00−3sw6147071 0.0 1016825
06:00−3wsw81672100 0.0 10111047
09:00−2wsw91776100 0.0 10071235
12:000wsw101876100 0.3 10061355
15:00−1nw5894100 2.4 1006584
18:00−2nnw2396100 2.0 1005229
21:00−3nw11092100 5.5 1006908
8 march, mon
mon800:00−4w4129061 0.1 1005545
03:00−5wnw5138230 0.1 1006808
06:00−7nw412850 0.0 1008602
09:00−7nw48861 0.0 1010515
12:00−5nw357889 0.1 1012902
15:00−4nw577695 0.4 10131115
18:00−6nw3783100 0.2 1013828
21:00−8nw398791 0.2 1016485